WIF458 ENBR-ENAL

Flight info

Callsign WIF458
Flight time 0h 43m
Altitude 21000
Route OLDAS DCT TUMIM
Aircraft DH8D/M-SDE2E3FGRY/H

Departure

Time 2026-04-28 16:27
Airport Bergen Airport, Flesland (ENBR)

Arrival

Time 2026-04-28 17:10
Airport Ålesund Airport (ENAL)
Time Latitude Longitude Altitude Speed Heading
2026-04-28 16:01 60.28778 5.22890 173 ft 0 kts 80°
2026-04-28 16:18 60.28778 5.22891 172 ft 0 kts 80°
2026-04-28 16:19 60.28777 5.22886 172 ft 2 kts 79°
2026-04-28 16:19 60.28775 5.22856 171 ft 2 kts 80°
2026-04-28 16:20 60.28772 5.22826 170 ft 2 kts 81°
2026-04-28 16:20 60.28770 5.22796 170 ft 2 kts 81°
2026-04-28 16:20 60.28768 5.22774 170 ft 0 kts 81°
2026-04-28 16:20 60.28770 5.22796 170 ft 2 kts 77°
2026-04-28 16:21 60.28771 5.22803 170 ft 0 kts 78°
2026-04-28 16:24 60.28769 5.22814 170 ft 2 kts 137°
2026-04-28 16:24 60.28739 5.22766 170 ft 9 kts 214°
2026-04-28 16:24 60.28681 5.22711 169 ft 9 kts 236°
2026-04-28 16:24 60.28666 5.22577 168 ft 7 kts 261°
2026-04-28 16:25 60.28674 5.22486 167 ft 4 kts 295°
2026-04-28 16:25 60.28681 5.22399 166 ft 6 kts 261°
2026-04-28 16:25 60.28673 5.22298 165 ft 8 kts 261°
2026-04-28 16:25 60.28664 5.22192 164 ft 7 kts 260°
2026-04-28 16:26 60.28656 5.22084 162 ft 7 kts 269°
2026-04-28 16:26 60.28675 5.22039 162 ft 0 kts 349°
2026-04-28 16:27 60.28802 5.21998 163 ft 59 kts 350°
2026-04-28 16:27 60.29490 5.21764 159 ft 135 kts 349°
2026-04-28 16:27 60.31594 5.21322 1149 ft 167 kts 355°
2026-04-28 16:28 60.32768 5.20990 1759 ft 176 kts 349°
2026-04-28 16:28 60.33957 5.20537 2401 ft 177 kts 349°
2026-04-28 16:28 60.35169 5.20085 3067 ft 178 kts 350°
2026-04-28 16:28 60.36366 5.19648 3725 ft 178 kts 351°
2026-04-28 16:29 60.38784 5.18788 5007 ft 181 kts 351°
2026-04-28 16:29 60.41366 5.17892 5858 ft 208 kts 351°
2026-04-28 16:30 60.42868 5.17373 5964 ft 233 kts 351°
2026-04-28 16:30 60.44555 5.16793 5991 ft 256 kts 351°
2026-04-28 16:30 60.46239 5.16200 5959 ft 236 kts 350°
2026-04-28 16:30 60.47777 5.15644 5956 ft 211 kts 350°
2026-04-28 16:31 60.49154 5.15189 6098 ft 194 kts 354°
2026-04-28 16:31 60.50469 5.15107 6257 ft 185 kts
2026-04-28 16:31 60.51737 5.15154 6301 ft 181 kts
2026-04-28 16:31 60.52983 5.15205 6390 ft 179 kts
2026-04-28 16:32 60.54245 5.15272 6741 ft 182 kts
2026-04-28 16:32 60.56647 5.15377 7591 ft 167 kts
2026-04-28 16:32 60.57824 5.15435 8113 ft 173 kts
2026-04-28 16:33 60.59060 5.15491 8641 ft 181 kts
2026-04-28 16:33 60.59894 5.15525 9045 ft 183 kts
2026-04-28 16:33 60.61578 5.15588 9878 ft 185 kts
2026-04-28 16:33 60.62855 5.15636 10539 ft 185 kts
2026-04-28 16:34 60.64147 5.15685 11172 ft 186 kts
2026-04-28 16:34 60.65422 5.15731 11832 ft 187 kts
2026-04-28 16:34 60.66691 5.15777 12500 ft 185 kts
2026-04-28 16:34 60.67979 5.15823 13118 ft 186 kts
2026-04-28 16:35 60.69255 5.15868 13737 ft 186 kts
2026-04-28 16:35 60.70564 5.15914 14285 ft 188 kts
2026-04-28 16:35 60.71848 5.15959 14845 ft 189 kts
2026-04-28 16:35 60.73159 5.16004 15392 ft 191 kts
2026-04-28 16:36 60.74480 5.16048 15961 ft 189 kts
2026-04-28 16:36 60.75793 5.16095 16431 ft 192 kts
2026-04-28 16:36 60.77108 5.16141 16936 ft 192 kts
2026-04-28 16:36 60.78450 5.16187 17422 ft 192 kts
2026-04-28 16:37 60.79765 5.16232 17912 ft 192 kts
2026-04-28 16:37 60.81115 5.16279 18313 ft 195 kts
2026-04-28 16:37 60.82451 5.16325 18761 ft 195 kts
2026-04-28 16:38 60.85183 5.16419 19553 ft 198 kts
2026-04-28 16:38 60.86548 5.16467 19914 ft 200 kts
2026-04-28 16:38 60.87945 5.16515 20302 ft 200 kts
2026-04-28 16:38 60.89348 5.16564 20628 ft 203 kts
2026-04-28 16:39 60.90744 5.16613 20991 ft 203 kts
2026-04-28 16:39 60.92149 5.16662 21278 ft 205 kts
2026-04-28 16:39 60.93618 5.16713 21414 ft 215 kts
2026-04-28 16:39 60.95137 5.16766 21455 ft 228 kts
2026-04-28 16:40 60.96769 5.16822 21461 ft 240 kts
2026-04-28 16:40 60.98441 5.16875 21453 ft 241 kts
2026-04-28 16:40 61.00108 5.16927 21445 ft 244 kts
2026-04-28 16:40 61.01815 5.16983 21441 ft 246 kts
2026-04-28 16:41 61.03510 5.17040 21437 ft 247 kts
2026-04-28 16:41 61.05240 5.17100 21440 ft 249 kts
2026-04-28 16:41 61.06976 5.17339 21419 ft 251 kts 11°
2026-04-28 16:41 61.08565 5.18739 21443 ft 253 kts 24°
2026-04-28 16:42 61.10120 5.20506 21441 ft 255 kts 24°
2026-04-28 16:42 61.11664 5.22272 21442 ft 257 kts 24°
2026-04-28 16:42 61.13233 5.24066 21432 ft 258 kts 24°
2026-04-28 16:42 61.14815 5.25871 21434 ft 260 kts 24°
2026-04-28 16:43 61.16385 5.27659 21430 ft 260 kts 24°
2026-04-28 16:43 61.17968 5.29463 21434 ft 261 kts 24°
2026-04-28 16:43 61.19564 5.31279 21432 ft 262 kts 24°
2026-04-28 16:43 61.21165 5.33103 21436 ft 262 kts 24°
2026-04-28 16:44 61.22742 5.34899 21437 ft 262 kts 24°
2026-04-28 16:44 61.24346 5.36726 21443 ft 263 kts 24°
2026-04-28 16:44 61.25949 5.38553 21440 ft 263 kts 24°
2026-04-28 16:44 61.27537 5.40366 21440 ft 264 kts 24°
2026-04-28 16:45 61.29147 5.42206 21436 ft 264 kts 24°
2026-04-28 16:45 61.30761 5.44051 21440 ft 264 kts 23°
2026-04-28 16:45 61.32367 5.45890 21434 ft 264 kts 24°
2026-04-28 16:45 61.33953 5.47708 21441 ft 264 kts 23°
2026-04-28 16:46 61.35572 5.49565 21439 ft 264 kts 24°
2026-04-28 16:46 61.37161 5.51390 21442 ft 264 kts 24°
2026-04-28 16:46 61.38772 5.53243 21446 ft 264 kts 24°
2026-04-28 16:46 61.40370 5.55083 21445 ft 264 kts 23°
2026-04-28 16:47 61.41987 5.56946 21443 ft 264 kts 24°
2026-04-28 16:47 61.43575 5.58779 21448 ft 264 kts 23°
2026-04-28 16:47 61.45187 5.60640 21448 ft 264 kts 23°
2026-04-28 16:47 61.46790 5.62495 21446 ft 264 kts 24°
2026-04-28 16:48 61.48375 5.64331 21447 ft 263 kts 23°
2026-04-28 16:48 61.49982 5.66194 21454 ft 263 kts 24°
2026-04-28 16:48 61.51580 5.68048 21453 ft 263 kts 24°
2026-04-28 16:48 61.53180 5.69908 21455 ft 263 kts 24°
2026-04-28 16:49 61.54756 5.71741 21459 ft 263 kts 24°
2026-04-28 16:49 61.56358 5.73607 21449 ft 264 kts 24°
2026-04-28 16:49 61.57967 5.75484 21447 ft 263 kts 24°
2026-04-28 16:49 61.59564 5.77348 21442 ft 263 kts 24°
2026-04-28 16:50 61.61165 5.79220 21439 ft 263 kts 24°
2026-04-28 16:50 61.62748 5.81073 21434 ft 263 kts 24°
2026-04-28 16:50 61.64339 5.82937 21427 ft 263 kts 24°
2026-04-28 16:50 61.65947 5.84824 21423 ft 263 kts 24°
2026-04-28 16:51 61.67534 5.86688 21437 ft 263 kts 24°
2026-04-28 16:51 61.69134 5.88569 21433 ft 263 kts 24°
2026-04-28 16:51 61.70714 5.90430 21422 ft 262 kts 24°
2026-04-28 16:51 61.72293 5.92295 21412 ft 263 kts 24°
2026-04-28 16:52 61.73909 5.94068 21404 ft 262 kts 20°
2026-04-28 16:52 61.75581 5.95649 21406 ft 262 kts 19°
2026-04-28 16:52 61.77242 5.97203 21251 ft 268 kts 19°
2026-04-28 16:52 61.78961 5.98812 20601 ft 268 kts 19°
2026-04-28 16:53 61.80619 6.00375 20172 ft 257 kts 19°
2026-04-28 16:53 61.82208 6.01887 19871 ft 248 kts 19°
2026-04-28 16:53 61.83762 6.03371 19602 ft 240 kts 19°
2026-04-28 16:53 61.85239 6.04786 19359 ft 231 kts 19°
2026-04-28 16:54 61.86665 6.06155 19127 ft 222 kts 19°
2026-04-28 16:54 61.88052 6.07468 18899 ft 212 kts 17°
2026-04-28 16:54 61.89405 6.08420 18640 ft 206 kts 12°
2026-04-28 16:54 61.90782 6.09248 18403 ft 209 kts 11°
2026-04-28 16:55 61.92184 6.10086 18252 ft 208 kts 11°
2026-04-28 16:55 61.93578 6.10919 18124 ft 207 kts 11°
2026-04-28 16:55 61.94990 6.11764 18015 ft 219 kts 11°
2026-04-28 16:55 61.96484 6.12659 17909 ft 232 kts 12°
2026-04-28 16:56 61.98072 6.13613 17802 ft 243 kts 12°
2026-04-28 16:56 61.99735 6.14611 17691 ft 252 kts 12°
2026-04-28 16:56 62.01436 6.15634 17578 ft 260 kts 12°
2026-04-28 16:56 62.03182 6.16686 17464 ft 267 kts 12°
2026-04-28 16:57 62.04991 6.17778 17347 ft 272 kts 12°
2026-04-28 16:57 62.06833 6.18889 17229 ft 277 kts 12°
2026-04-28 16:57 62.08667 6.19995 16638 ft 281 kts 12°
2026-04-28 16:57 62.10551 6.21125 15814 ft 286 kts 13°
2026-04-28 16:58 62.12429 6.22256 15176 ft 279 kts 13°
2026-04-28 16:58 62.14259 6.23359 14666 ft 268 kts 13°
2026-04-28 16:58 62.16005 6.24417 14211 ft 256 kts 13°
2026-04-28 16:58 62.17665 6.25421 13806 ft 244 kts 12°
2026-04-28 16:59 62.19264 6.26386 13404 ft 232 kts 11°
2026-04-28 16:59 62.20777 6.27308 13038 ft 227 kts 11°
2026-04-28 16:59 62.22294 6.28226 12670 ft 226 kts 12°
2026-04-28 16:59 62.23804 6.29156 12339 ft 233 kts 12°
2026-04-28 17:00 62.25396 6.30136 11945 ft 241 kts 12°
2026-04-28 17:00 62.27021 6.31128 11546 ft 249 kts 13°
2026-04-28 17:00 62.28693 6.32150 11137 ft 255 kts 13°
2026-04-28 17:00 62.30431 6.33223 10696 ft 260 kts 13°
2026-04-28 17:01 62.32165 6.34284 10271 ft 264 kts 13°
2026-04-28 17:01 62.33901 6.35346 9839 ft 261 kts 13°
2026-04-28 17:01 62.35646 6.36419 9419 ft 259 kts 13°
2026-04-28 17:01 62.37362 6.37478 8995 ft 258 kts 13°
2026-04-28 17:02 62.39071 6.38533 8578 ft 257 kts 13°
2026-04-28 17:02 62.40790 6.39598 8155 ft 256 kts 13°
2026-04-28 17:02 62.42474 6.40639 7733 ft 250 kts 13°
2026-04-28 17:02 62.44122 6.41656 7331 ft 243 kts 13°
2026-04-28 17:03 62.47259 6.43598 6561 ft 231 kts 13°
2026-04-28 17:03 62.48802 6.44550 6182 ft 226 kts 13°
2026-04-28 17:03 62.50279 6.45462 5816 ft 221 kts 13°
2026-04-28 17:04 62.53173 6.46460 5109 ft 200 kts 346°
2026-04-28 17:04 62.54479 6.45723 4789 ft 190 kts 341°
2026-04-28 17:05 62.56947 6.44224 4195 ft 183 kts 341°
2026-04-28 17:05 62.58176 6.43479 3900 ft 185 kts 341°
2026-04-28 17:05 62.59423 6.42722 3599 ft 185 kts 340°
2026-04-28 17:06 62.61765 6.40751 3063 ft 175 kts 319°
2026-04-28 17:06 62.62556 6.38849 2840 ft 166 kts 300°
2026-04-28 17:06 62.63098 6.34325 2401 ft 149 kts 265°
2026-04-28 17:07 62.62894 6.32187 2238 ft 146 kts 250°
2026-04-28 17:07 62.62426 6.30261 2032 ft 140 kts 234°
2026-04-28 17:07 62.61768 6.28783 1843 ft 134 kts 219°
2026-04-28 17:07 62.60966 6.27749 1703 ft 138 kts 207°
2026-04-28 17:08 62.60101 6.26910 1504 ft 134 kts 213°
2026-04-28 17:08 62.59400 6.25670 1318 ft 130 kts 230°
2026-04-28 17:08 62.58888 6.24047 1151 ft 132 kts 245°
2026-04-28 17:08 62.58507 6.22207 982 ft 137 kts 247°
2026-04-28 17:09 62.58096 6.20303 793 ft 140 kts 245°
2026-04-28 17:09 62.57652 6.18451 586 ft 137 kts 242°
2026-04-28 17:09 62.57260 6.16639 412 ft 130 kts 246°
2026-04-28 17:09 62.56882 6.14897 282 ft 123 kts 243°
2026-04-28 17:10 62.56518 6.13239 110 ft 122 kts 244°
2026-04-28 17:10 62.56176 6.11652 76 ft 109 kts 244°
2026-04-28 17:10 62.55906 6.10414 64 ft 69 kts 244°
2026-04-28 17:10 62.55766 6.09771 48 ft 17 kts 246°
2026-04-28 17:11 62.55750 6.09680 46 ft 3 kts 147°
2026-04-28 17:11 62.55770 6.09791 49 ft 12 kts 65°
2026-04-28 17:11 62.55817 6.10009 53 ft 18 kts 64°
2026-04-28 17:11 62.55876 6.10283 61 ft 19 kts 64°
2026-04-28 17:12 62.55927 6.10515 67 ft 14 kts 65°
2026-04-28 17:12 62.55941 6.10720 72 ft 14 kts 105°
2026-04-28 17:12 62.55915 6.10927 74 ft 13 kts 105°
2026-04-28 17:12 62.55893 6.11113 76 ft 11 kts 92°
2026-04-28 17:13 62.55922 6.11260 78 ft 9 kts 64°
2026-04-28 17:13 62.55949 6.11386 78 ft 8 kts 72°
2026-04-28 17:13 62.55923 6.11460 78 ft 4 kts 154°
2026-04-28 17:13 62.55910 6.11474 78 ft 0 kts 154°